BON52X FSIA-FACT

Flight info

Callsign BON52X
Flight time N/A
Altitude 34000
Route IMPOX1B IMPOX DCT OKLAB/N0463F350 UM307 NESAM/N0462F340 UM307 GALBA/N0462F360 UM307 AVITO UW19 VL UG467 TEVAP UZ36 IXEKI/N0459F380 UZ36 BLV UW95 PVV UZ40 ESRUK UQ51 GETEN GETEN1C
Aircraft A320/M-SDE3FGHIRWY/LB1

Departure

Time 2026-05-04 13:11
Airport Seychelles International Airport (FSIA)

Arrival

Time N/A
Airport Cape Town International Airport (FACT)
Time Latitude Longitude Altitude Speed Heading
2026-05-04 12:32 -4.67086 55.51221 20 ft 0 kts 215°
2026-05-04 13:00 -4.67081 55.51225 20 ft 3 kts 215°
2026-05-04 13:01 -4.67067 55.51234 20 ft 3 kts 200°
2026-05-04 13:01 -4.67050 55.51236 20 ft 3 kts 180°
2026-05-04 13:01 -4.67032 55.51236 20 ft 2 kts 212°
2026-05-04 13:01 -4.67023 55.51250 20 ft 2 kts 282°
2026-05-04 13:02 -4.67025 55.51263 20 ft 0 kts 282°
2026-05-04 13:04 -4.67025 55.51262 20 ft 0 kts 282°
2026-05-04 13:04 -4.67022 55.51249 20 ft 3 kts 288°
2026-05-04 13:04 -4.67006 55.51227 20 ft 6 kts 311°
2026-05-04 13:05 -4.66959 55.51197 20 ft 9 kts 349°
2026-05-04 13:05 -4.66895 55.51190 22 ft 10 kts 332°
2026-05-04 13:05 -4.66851 55.51133 20 ft 11 kts 302°
2026-05-04 13:05 -4.66807 55.51065 20 ft 12 kts 304°
2026-05-04 13:06 -4.66760 55.51021 20 ft 6 kts 342°
2026-05-04 13:06 -4.66741 55.51027 20 ft 0 kts 38°
2026-05-04 13:08 -4.66736 55.51030 20 ft 2 kts 38°
2026-05-04 13:08 -4.66694 55.51064 22 ft 6 kts 41°
2026-05-04 13:08 -4.66687 55.51091 22 ft 4 kts 101°
2026-05-04 13:09 -4.66696 55.51105 22 ft 0 kts 122°
2026-05-04 13:10 -4.66760 55.51198 25 ft 47 kts 125°
2026-05-04 13:10 -4.67082 55.51668 23 ft 113 kts 124°
2026-05-04 13:10 -4.67634 55.52465 23 ft 162 kts 124°
2026-05-04 13:11 -4.68335 55.53486 356 ft 180 kts 125°
2026-05-04 13:11 -4.69056 55.54521 1101 ft 182 kts 126°
2026-05-04 13:11 -4.69780 55.55559 1728 ft 183 kts 126°
2026-05-04 13:11 -4.70546 55.56647 1949 ft 201 kts 126°
2026-05-04 13:12 -4.71382 55.57832 2161 ft 217 kts 126°
2026-05-04 13:12 -4.72287 55.59113 2381 ft 236 kts 126°
2026-05-04 13:12 -4.73350 55.60424 2628 ft 256 kts 143°
2026-05-04 13:12 -4.75030 55.61055 3094 ft 266 kts 180°
2026-05-04 13:13 -4.76809 55.60567 3739 ft 270 kts 215°
2026-05-04 13:13 -4.78008 55.59141 4426 ft 273 kts 249°
2026-05-04 13:13 -4.78391 55.57276 5133 ft 275 kts 272°
2026-05-04 13:13 -4.78236 55.55370 5975 ft 271 kts 275°
2026-05-04 13:14 -4.78203 55.53486 6765 ft 271 kts 261°
2026-05-04 13:14 -4.78617 55.51642 7435 ft 273 kts 253°
2026-05-04 13:14 -4.79194 55.49819 8090 ft 275 kts 252°
2026-05-04 13:14 -4.79793 55.48011 8721 ft 278 kts 252°
2026-05-04 13:15 -4.80409 55.46160 9340 ft 281 kts 252°
2026-05-04 13:15 -4.81032 55.44291 9933 ft 284 kts 252°
2026-05-04 13:15 -4.81660 55.42407 10558 ft 285 kts 252°
2026-05-04 13:15 -4.82291 55.40523 11185 ft 286 kts 252°
2026-05-04 13:16 -4.82930 55.38624 11787 ft 288 kts 250°
2026-05-04 13:16 -4.83892 55.36863 12366 ft 290 kts 236°
2026-05-04 13:16 -4.85049 55.35182 12757 ft 300 kts 236°
2026-05-04 13:16 -4.86280 55.33413 12904 ft 318 kts 236°
2026-05-04 13:17 -4.87584 55.31549 13030 ft 335 kts 235°
2026-05-04 13:17 -4.88957 55.29593 13161 ft 350 kts 235°
2026-05-04 13:17 -4.90368 55.27579 13314 ft 363 kts 235°
2026-05-04 13:17 -4.91832 55.25489 13671 ft 369 kts 235°
2026-05-04 13:18 -4.93333 55.23347 14118 ft 372 kts 235°
2026-05-04 13:18 -4.94821 55.21216 14565 ft 375 kts 235°
2026-05-04 13:18 -4.96322 55.19060 15002 ft 378 kts 235°
2026-05-04 13:18 -4.97816 55.16915 15420 ft 381 kts 235°
2026-05-04 13:19 -4.99363 55.14697 15847 ft 384 kts 235°
2026-05-04 13:19 -5.00879 55.12522 16267 ft 387 kts 235°
2026-05-04 13:19 -5.02428 55.10303 16674 ft 390 kts 235°
2026-05-04 13:19 -5.03993 55.08062 17088 ft 392 kts 235°
2026-05-04 13:20 -5.05563 55.05811 17491 ft 395 kts 235°
2026-05-04 13:20 -5.07144 55.03545 17888 ft 398 kts 235°
2026-05-04 13:20 -5.08740 55.01257 18268 ft 401 kts 235°
2026-05-04 13:20 -5.10346 54.98958 18646 ft 404 kts 235°
2026-05-04 13:21 -5.11967 54.96636 19007 ft 407 kts 235°
2026-05-04 13:21 -5.13596 54.94303 19379 ft 410 kts 235°
2026-05-04 13:21 -5.15237 54.91949 19743 ft 412 kts 235°
2026-05-04 13:21 -5.16867 54.89611 20111 ft 415 kts 235°
2026-05-04 13:22 -5.18526 54.87232 20465 ft 417 kts 235°
2026-05-04 13:22 -5.20198 54.84837 20791 ft 420 kts 235°
2026-05-04 13:22 -5.21881 54.82429 21134 ft 422 kts 235°
2026-05-04 13:22 -5.23576 54.80000 21432 ft 425 kts 235°